Regional Weather Roundup
Issued by NWS Bismarck, ND

Home | Current Version | Previous Version | Text Only | Print | Product List | Glossary On
Versions: 1 2 3 4 5 6 7 8 9 10 11 12 13 14 15 16 17 18 19 20 21 22 23 24 25 26 27 28 29 30 31 32 33 34 35 36 37 38 39 40 41 42 43 44 45 46 47 48 49 50
000
ASUS43 KBIS 281720
RWRBIS

NWR BROADCAST TEXT
NATIONAL WEATHER SERVICE BISMARCK ND
1200 PM CDT MON JUL 28 2014

NOTE: "FAIR" INDICATES FEW OR NO CLOUDS BELOW 12,000 FEET WITH NO
SIGNIFICANT WEATHER AND/OR OBSTRUCTIONS TO VISIBILITY.


CITY           SKY/WX    TMP DP  RH WIND       PRES   REMARKS
WILLISTON      SUNNY     75  53  46 VRB3      30.31S
MINOT          SUNNY     70  52  52 N6        30.31F
MINOT AFB      MOSUNNY   69  53  57 VRB2      30.31S
BISMARCK       MOSUNNY   68  52  56 W6        30.33F
DICKINSON      SUNNY     71  53  52 E7        30.32F
GARRISON         N/A     69  54  58 VRB3      30.33S
HETTINGER ARPT SUNNY     71  52  50 SE6       30.34F
JAMESTOWN      PTSUNNY   67  51  56 N7        30.30F
CARRINGTON     FAIR      66  55  68 NW8       30.32F
CROSBY         FAIR      72  57  60 CALM      30.32S
HARVEY         FAIR      68  55  64 NW8       30.32S
HAZEN          FAIR      70  50  49 SE5       30.33F
LINTON         FAIR      68  50  52 NW7       30.32F
MANDAN         CLOUDY    68  54  60 W6        30.33F
RUGBY          FAIR      66  55  68 NW6       30.31F
STANLEY        FAIR      68  55  64 SE3       30.33S
TIOGA          FAIR      68  55  64 CALM      30.35S
WATFORD CITY   FAIR      75  54  46 E5        30.29F
$$

CITY           SKY/WX    TMP DP  RH WIND       PRES   REMARKS
GRAND FORKS    MOSUNNY   72  56  57 NW7G16    30.26F
GRAND FORKS AF MOSUNNY   71  57  60 NW8       30.28F
DEVILS LAKE    PTSUNNY   66  52  59 NW7       30.29F
FARGO          CLOUDY    70  57  63 NW9       30.27S
CANDO          PTSUNNY   68  54  60 N7        30.31F
CAVALIER       FAIR      72  52  49 N10G18    30.27F
GRAFTON        FAIR      70  55  60 N12       30.27F
GWINNER        PTSUNNY   70  52  52 N9        30.30S
LANGDON        FAIR      72  50  46 NW10      30.30S
ROLLA            N/A     66  52  59 N8        30.32F
WALHALLA       FAIR      70  55  60 N13         N/A
$$

CITY           SKY/WX    TMP DP  RH WIND       PRES   REMARKS
ABERDEEN       MOSUNNY   69  51  52 N10       30.30F
MOBRIDGE       PTSUNNY   69  53  56 VRB3      30.31F
BUFFALO          N/A     73  55  53 E6        30.27S
RAPID CITY     SUNNY     73  57  57 SE10      30.33F
GLASGOW        SUNNY     79  51  37 CALM      30.26F
SIDNEY         SUNNY     77  54  44 S3        30.30F
WOLF POINT     SUNNY     77  53  43 CALM      30.27F
GLENDIVE       SUNNY     75  54  46 CALM      30.31S
MILES CITY     SUNNY     79  53  40 VRB3      30.27F
BAKER          SUNNY     77  52  41 VRB7      30.32S
$$

CITY           SKY/WX    TMP DP  RH WIND       PRES   REMARKS
BILLINGS       MOSUNNY   75  44  33 VRB5      30.28S
GREAT FALLS    MOSUNNY   79  45  29 N7        30.24F
REGINA         SUNNY     72  59  64 SE5       30.29F
ESTEVAN        MOSUNNY   70  57  64 SW2       30.32S
$$



USA.gov is the U.S. government's official web portal to all federal, state and local government web resources and services.